STARLINK-32038 (60281 NORAD) Tracking and Keplerian Element Data

This shows tracking and keplerian element data for the satellite.

Feedback or suggestion? Click here.




ElementValue
Catalog60281
NameSTARLINK-32038
Epoch Orbit1295
Epoch Day286.2591513
Epoch Year2024
RAAN277.1408
Inclination53.159
Eccentricity0.0001505
Argument of Perigee89.6035
Mean Anonmoly270.5138
Mean Motion15.30172057
Decay Rate4.617E-05
L11 60281U 24132D 24286.25915130 .00004617 00000+0 16807-3 0 9999
L22 60281 53.1590 277.1408 0001505 89.6035 270.5138 15.30172057 12957



Live tracking and technical data element details for STARLINK-32038 (NORAD 60281). STARLINK-32038 can be tracked NOW for your location showing map with azimuth and elevation plus other details from your city location.







IsCatalogInMostPopularTable: catalog: 60281, numindb: 11
Update: records affected: 1



GetName: 60281 STARLINK-32038

Hit Count: updated at: Thu, 23 Jan 2025 14:55:20 GMT